Location: Asheville, NC
(35.6000°N, 82.5500°W)
Time: 20:09:08
(UTC-04:00)

HO-68 - Pass Details

Date: 09 March 2018
Orbit: 1192 x 1205 km, 100.1° (Epoch: 24 June)

Event Time Altitude Azimuth Distance (km) Brightness Sun altitude
Rises 20:19:42 0° 215° (SW) 4,075 ? -22.5°
Reaches altitude 10° 20:23:51 10° 238° (WSW) 3,118 ? -23.3°
Maximum altitude 20:27:26 14° 269° (W) 2,798 ? -24.0°
Drops below altitude 10° 20:31:04 10° 300° (WNW) 3,131 ? -24.7°
Sets 20:35:17 0° 324° (NW) 4,103 ? -25.6°
